Weather History for Grants-Milan, NM

Change the Weather History Date:

Tuesday, February 12, 2013

  Actual Average Record
Temperature  
Mean Temperature 24 °F -  
Max Temperature 37 °F 53 °F 66 °F (1954)
Min Temperature 10 °F 18 °F -5 °F (1965)
Degree Days  
Heating Degree Days 42    
Moisture  
Dew Point 13 °F    
Average Humidity 65    
Maximum Humidity 92    
Minimum Humidity 31    
Precipitation  
Precipitation 0.00 in - - ()
Sea Level Pressure  
Sea Level Pressure 30.11 in    
Wind  
Wind Speed 9 mph (NNW)    
Max Wind Speed 20 mph    
Max Gust Speed 24 mph    
Visibility 10 miles    
Events      
Averages and records for this station are not official NWS values.
T = Trace of Precipitation, MM = Missing Value Source: NWS Daily Summary

Daily Weather History Graph

Daily Weather History Graph

Search for Another Location

Airport:

Trip Planner

Search our weather history database for the weather conditions in past years. The results will help you decide how hot, cold, wet, or windy it might be!

Date:

Astronomy

Feb. 12, 2013 Rise Set
Actual Time 7:00 AM MST 5:51 PM MST
Civil Twilight 6:34 AM MST 6:17 PM MST
Nautical Twilight 6:04 AM MST 6:47 PM MST
Astronomical Twilight 5:35 AM MST 7:17 PM MST
Moon 8:07 AM MST (2/12) 8:46 PM MST (2/12)
Length of Visible Light 11h 43m
Length of Day
10h 50m
Waxing Crescent, 8% of the Moon is Illuminated
Feb 12
Waxing Crescent
Feb 17
First Quarter
Feb 25
Full
Mar 4
Last Quarter
Mar 11
New

Hourly Weather History & Observations

Time (MST) Temp. Windchill Dew Point Humidity Pressure Visibility Wind Dir Wind Speed Gust Speed Precip Events Conditions
12:15 AM 23.5 °F 12.4 °F 19.2 °F 84% 30.00 in 10.0 mi NNW 11.5 mph - N/A   Overcast
12:35 AM 21.0 °F 14.6 °F 17.8 °F 87% 30.01 in 10.0 mi North 4.6 mph - N/A   Overcast
12:55 AM 21.2 °F 10.9 °F 18.3 °F 89% 30.01 in 10.0 mi NNW 9.2 mph - N/A   Overcast
1:15 AM 21.2 °F 10.9 °F 17.6 °F 86% 30.01 in 10.0 mi NNW 9.2 mph - N/A   Overcast
1:35 AM 19.4 °F 9.5 °F 16.3 °F 88% 30.01 in 10.0 mi NNW 8.1 mph - N/A   Scattered Clouds
1:55 AM 17.1 °F 6.6 °F 14.4 °F 89% 30.01 in 10.0 mi NW 8.1 mph - N/A   Scattered Clouds
2:15 AM 16.7 °F 6.2 °F 14.4 °F 91% 30.01 in 10.0 mi North 8.1 mph - N/A   Mostly Cloudy
2:35 AM 18.5 °F 8.4 °F 15.6 °F 89% 30.02 in 10.0 mi NNW 8.1 mph - N/A   Mostly Cloudy
2:55 AM 18.9 °F 10.8 °F 16.2 °F 89% 30.02 in 10.0 mi NNW 5.8 mph - N/A   Overcast
3:15 AM 20.8 °F 11.2 °F 17.6 °F 87% 30.02 in 10.0 mi NNW 8.1 mph - N/A   Overcast
3:35 AM 22.1 °F 12.8 °F 18.7 °F 87% 30.02 in 10.0 mi NW 8.1 mph - N/A   Overcast
3:55 AM 22.5 °F 13.2 °F 18.3 °F 84% 30.03 in 10.0 mi NW 8.1 mph - N/A   Overcast
4:15 AM 21.9 °F 14.5 °F 17.6 °F 83% 30.04 in 10.0 mi NW 5.8 mph - N/A   Overcast
4:35 AM 18.5 °F 7.5 °F 15.4 °F 88% 30.04 in 10.0 mi NNW 9.2 mph - N/A   Scattered Clouds
4:55 AM 16.3 °F 4.9 °F 13.1 °F 87% 30.04 in 10.0 mi NNW 9.2 mph - N/A   Clear
5:15 AM 14.9 °F 3.1 °F 12.2 °F 89% 30.05 in 10.0 mi NNW 9.2 mph - N/A   Clear
5:35 AM 14.7 °F 5.9 °F 12.0 °F 89% 30.06 in 10.0 mi North 5.8 mph - N/A   Clear
5:55 AM 14.0 °F 3.9 °F 11.3 °F 89% 30.07 in 10.0 mi North 6.9 mph - N/A   Clear
6:15 AM 11.7 °F 2.3 °F 9.0 °F 89% 30.07 in 10.0 mi NNW 5.8 mph - N/A   Clear
6:35 AM 11.5 °F 0.9 °F 9.3 °F 91% 30.08 in 10.0 mi NNW 6.9 mph - N/A   Clear
6:55 AM 10.2 °F 0.6 °F 7.3 °F 88% 30.09 in 10.0 mi NNW 5.8 mph - N/A   Clear
7:15 AM 12.9 °F 2.6 °F 10.9 °F 92% 30.10 in 10.0 mi North 6.9 mph - N/A   Mostly Cloudy
7:35 AM 14.4 °F 5.5 °F 11.5 °F 88% 30.12 in 10.0 mi North 5.8 mph - N/A   Overcast
7:55 AM 16.7 °F 8.3 °F 12.9 °F 85% 30.12 in 10.0 mi North 5.8 mph - N/A   Mostly Cloudy
8:15 AM 18.3 °F 9.1 °F 13.6 °F 82% 30.13 in 10.0 mi NNW 6.9 mph - N/A   Clear
8:35 AM 21.2 °F 12.6 °F 15.4 °F 78% 30.14 in 10.0 mi North 6.9 mph - N/A   Clear
8:55 AM 22.5 °F 13.2 °F 16.2 °F 77% 30.15 in 10.0 mi North 8.1 mph - N/A   Clear
9:15 AM 24.8 °F 14.6 °F 16.5 °F 71% 30.15 in 10.0 mi NNW 10.4 mph - N/A   Clear
9:35 AM 25.5 °F 16.2 °F 16.3 °F 68% 30.16 in 10.0 mi NNW 9.2 mph - N/A   Clear
9:55 AM 26.8 °F 17.7 °F 16.7 °F 66% 30.16 in 10.0 mi North 9.2 mph - N/A   Clear
10:15 AM 28.0 °F 18.1 °F 16.2 °F 61% 30.15 in 10.0 mi NNW 11.5 mph - N/A   Clear
10:35 AM 29.5 °F 19.3 °F 17.1 °F 60% 30.15 in 10.0 mi NNW 12.7 mph 17.3 mph N/A   Clear
10:55 AM 30.7 °F 22.6 °F 17.2 °F 57% 30.14 in 10.0 mi NW 9.2 mph - N/A   Clear
11:15 AM 32.0 °F 21.6 °F 17.8 °F 56% 30.14 in 10.0 mi North 15.0 mph 19.6 mph N/A   Clear
11:35 AM 32.2 °F 22.3 °F 17.1 °F 54% 30.14 in 10.0 mi North 13.8 mph - N/A   Clear
11:55 AM 34.0 °F 23.4 °F 14.7 °F 45% 30.13 in 10.0 mi NNW 17.3 mph 21.9 mph N/A   Clear
12:15 PM 34.9 °F 24.6 °F 12.2 °F 39% 30.12 in 10.0 mi NNW 17.3 mph 21.9 mph N/A   Clear
12:35 PM 35.1 °F 25.5 °F 10.9 °F 37% 30.12 in 10.0 mi NNW 15.0 mph 23.0 mph N/A   Clear
12:55 PM 36.0 °F 26.3 °F 11.8 °F 37% 30.11 in 10.0 mi NNW 16.1 mph 24.2 mph N/A   Clear
1:15 PM 35.8 °F 25.4 °F 11.1 °F 36% 30.10 in 10.0 mi NNW 18.4 mph 21.9 mph N/A   Clear
1:35 PM 36.1 °F 26.5 °F 10.8 °F 35% 30.10 in 10.0 mi NW 16.1 mph - N/A   Clear
1:55 PM 36.7 °F 27.2 °F 8.8 °F 31% 30.10 in 10.0 mi NW 16.1 mph 21.9 mph N/A   Clear
2:15 PM 36.9 °F 26.5 °F 9.5 °F 32% 30.10 in 10.0 mi North 19.6 mph 23.0 mph N/A   Clear
2:35 PM 37.2 °F 27.6 °F 9.3 °F 32% 30.10 in 10.0 mi NNW 17.3 mph 24.2 mph N/A   Clear
2:55 PM 37.4 °F 29.3 °F 10.0 °F 32% 30.10 in 10.0 mi NW 12.7 mph 23.0 mph N/A   Clear
3:15 PM 37.4 °F 28.9 °F 11.1 °F 34% 30.10 in 10.0 mi NW 13.8 mph 18.4 mph N/A   Clear
3:35 PM 37.4 °F 30.3 °F 11.3 °F 34% 30.10 in 10.0 mi NW 10.4 mph 16.1 mph N/A   Clear
3:55 PM 37.2 °F 29.6 °F 9.3 °F 32% 30.10 in 10.0 mi NW 11.5 mph 17.3 mph N/A   Clear
4:15 PM 37.2 °F 30.6 °F 8.8 °F 31% 30.10 in 10.0 mi North 9.2 mph - N/A   Clear
4:35 PM 36.9 °F 29.1 °F 9.1 °F 32% 30.11 in 10.0 mi WNW 11.5 mph 16.1 mph N/A   Clear
4:55 PM 36.0 °F 27.5 °F 8.1 °F 31% 30.12 in 10.0 mi NW 12.7 mph 16.1 mph N/A   Clear
5:15 PM 35.1 °F 27.4 °F 8.2 °F 33% 30.12 in 10.0 mi NW 10.4 mph - N/A   Clear
5:35 PM 33.6 °F 26.2 °F 8.6 °F 35% 30.12 in 10.0 mi NNW 9.2 mph - N/A   Clear
5:55 PM 31.6 °F 25.1 °F 9.9 °F 40% 30.12 in 10.0 mi NNW 6.9 mph - N/A   Clear
6:15 PM 27.5 °F 20.2 °F 11.3 °F 51% 30.13 in 10.0 mi NW 6.9 mph - N/A   Clear
6:35 PM 27.5 °F 22.2 °F 12.2 °F 53% 30.13 in 10.0 mi West 4.6 mph - N/A   Clear
7:15 PM 27.5 °F 19.3 °F 12.2 °F 53% 30.15 in 10.0 mi North 8.1 mph - N/A   Clear
7:35 PM 25.9 °F 19.2 °F 11.8 °F 55% 30.16 in 10.0 mi NW 5.8 mph - N/A   Clear
7:55 PM 22.5 °F 15.1 °F 12.9 °F 67% 30.16 in 10.0 mi NNW 5.8 mph - N/A   Clear
8:15 PM 20.3 °F 11.5 °F 12.7 °F 73% 30.17 in 10.0 mi NW 6.9 mph - N/A   Clear
8:35 PM 20.3 °F 11.5 °F 11.7 °F 69% 30.18 in 10.0 mi NW 6.9 mph - N/A   Clear
8:55 PM 20.8 °F 14.4 °F 10.9 °F 66% 30.18 in 10.0 mi NNW 4.6 mph - N/A   Clear
9:15 PM 21.4 °F - 10.2 °F 62% 30.19 in 10.0 mi Calm Calm - N/A   Clear
9:35 PM 20.3 °F - 9.1 °F 62% 30.20 in 10.0 mi Calm Calm - N/A   Clear
9:55 PM 17.6 °F - 8.4 °F 67% 30.19 in 10.0 mi Calm Calm - N/A   Clear
10:15 PM 17.8 °F - 8.1 °F 66% 30.18 in 10.0 mi Calm Calm - N/A   Clear
10:35 PM 17.1 °F - 8.8 °F 70% 30.18 in 10.0 mi Calm Calm - N/A   Clear
10:55 PM 15.1 °F - 9.7 °F 79% 30.18 in 10.0 mi Calm Calm - N/A   Clear
11:15 PM 11.8 °F - 8.1 °F 85% 30.18 in 10.0 mi Calm Calm - N/A   Clear
11:35 PM 13.8 °F - 8.8 °F 80% 30.18 in 10.0 mi Calm Calm - N/A   Clear
11:55 PM 12.0 °F 5.9 °F 8.6 °F 86% 30.18 in 10.0 mi WNW 3.5 mph - N/A   Clear